View from above orbital plane
|
View from above satellite
|
Ground track
|
The orbit data is extracted from the following two-line orbital elements,
1 40903U 15049E 22175.80954063 .00021144 00000-0 32969-3 0 9991
2 40903 97.1782 234.3529 0011420 95.6617 16.0325 15.53798856380401
Epoch (UTC): | 24 June 2022 19:25:44 |
Eccentricity: | 0.0011420 |
inclination: | 97.1782° |
perigee height: | 398 km |
apogee height: | 413 km |
right ascension of ascending node: | 234.3529° |
argument of perigee: | 95.6617° |
revolutions per day: | 15.53798856 |
mean anomaly at epoch: | 16.0325° |
orbit number at epoch: | 38040 |
The dashed part of the orbit path shows where the satellite is in the earth's shadow,
|
|